Weather in Misrata

Libya     32°12′48″N   14°59′10″E
temp.,
°C
wind,
m/s
gust,
m/s
humid.,
%
clouds,
%
prec.,
mm/h
press.,
hPa
HPBL,
m
13 june, sun
sun1323:00+23ne22580 0.0 1019130
02:00+21ne11650 0.0 101861
05:00+21nnw22690 0.0 101756
08:00+23nnw22590 0.0 1019451
11:00+27n44370 0.0 10191311
14:00+28n65350 0.0 10191332
17:00+28n65351 0.0 10181075
20:00+24n45490 0.0 1018239
14 june, mon
mon1423:00+22nnw34580 0.0 1019152
02:00+21nw22660 0.0 101861
05:00+20nw22730 0.0 101761
08:00+22wnw33680 0.0 1019323
11:00+27n22390 0.0 10181242
14:00+30nne63320 0.0 10171557
17:00+28nne64330 0.0 1016927
20:00+25ene45450 0.0 1016199
15 june, tue
tue1523:00+23ese34580 0.0 1017118
02:00+21sse22660 0.0 101651
05:00+20s22680 0.0 101635
08:00+23s22530 0.0 1016224
11:00+29sse21250 0.0 10161024
14:00+33ene53200 0.0 10141910
17:00+30ene75270 0.0 1014875
20:00+25ene56405 0.0 1015212
16 june, wed
wed1623:00+23e34540 0.0 1017131
02:00+22e34630 0.0 101691
05:00+21ese33710 0.0 101661
08:00+24se34570 0.0 1017427
11:00+28ese43340 0.0 10171193
14:00+31e74310 0.0 10161490
17:00+29e76360 0.0 10161068
20:00+24ese78590 0.0 1016385
17 june, thu
thu1723:00+23ese710710 0.0 1016315
02:00+22ese58750 0.0 1015191
05:00+20se35800 0.0 101696
08:00+23se45650 0.0 1017457
11:00+29se65380 0.0 1017945
14:00+32ese64300 0.0 10171269
17:00+30e76342 0.0 1016740
20:00+25e79485 0.0 1016285